| time (UTC) | temp C | wind direction | speed KPH | gust KPH | rain 1hr cm | rain 24hr cm | rain mn cm | humidity % | barometer mb |
| 20260509101532 | 10 | 236 | 9.7 | 17.7 | 0.00 | 0.05 | 0.00 | 94 | 1005.1 |
| 20260509100032 | 10 | 209 | 8.0 | 17.7 | 0.00 | 0.05 | 0.00 | 94 | 1004.9 |
| 20260509094530 | 10 | 238 | 9.7 | 16.1 | 0.00 | 0.05 | 0.00 | 94 | 1005.1 |
| 20260509093026 | 9 | 197 | 6.4 | 14.5 | 0.00 | 0.05 | 0.00 | 94 | 1005.2 |
| 20260509091533 | 9 | 217 | 6.4 | 11.3 | 0.00 | 0.05 | 0.00 | 94 | 1005.3 |
| 20260509090028 | 9 | 187 | 6.4 | 16.1 | 0.00 | 0.05 | 0.00 | 94 | 1005.2 |
| 20260509084526 | 9 | 186 | 3.2 | 9.7 | 0.00 | 0.05 | 0.00 | 93 | 1005.3 |
| 20260509083039 | 9 | 178 | 4.8 | 14.5 | 0.00 | 0.05 | 0.00 | 93 | 1005.4 |
| 20260509081532 | 9 | 181 | 6.4 | 11.3 | 0.00 | 0.05 | 0.00 | 93 | 1005.5 |
| 20260509080034 | 9 | 183 | 4.8 | 8.0 | 0.00 | 0.05 | 0.00 | 93 | 1005.5 |
| 20260509074526 | 8 | 155 | 1.6 | 8.0 | 0.00 | 0.05 | 0.00 | 93 | 1005.2 |
| 20260509073030 | 8 | 173 | 3.2 | 6.4 | 0.00 | 0.05 | 0.00 | 91 | 1005.4 |
| 20260509071530 | 10 | 196 | 3.2 | 9.7 | 0.00 | 0.05 | 0.00 | 92 | 1005.5 |
| 20260509070028 | 10 | 209 | 3.2 | 8.0 | 0.00 | 0.05 | 0.00 | 91 | 1005.8 |
| 20260509064532 | 10 | 213 | 1.6 | 8.0 | 0.00 | 0.05 | 0.00 | 91 | 1005.7 |
| 20260509063034 | 10 | 209 | 3.2 | 9.7 | 0.00 | 0.05 | 0.00 | 91 | 1005.9 |
| 20260509061540 | 11 | 221 | 3.2 | 9.7 | 0.00 | 0.05 | 0.00 | 90 | 1006.0 |
| 20260509060026 | 10 | 186 | 4.8 | 8.0 | 0.00 | 0.05 | 0.00 | 90 | 1006.1 |
| 20260509054530 | 11 | 189 | 4.8 | 11.3 | 0.00 | 0.05 | 0.00 | 89 | 1006.0 |
| 20260509053049 | 11 | 194 | 6.4 | 12.9 | 0.00 | 0.05 | 0.00 | 89 | 1006.1 |
| 20260509051527 | 11 | 215 | 6.4 | 16.1 | 0.00 | 0.05 | 0.00 | 88 | 1006.2 |
| 20260509050032 | 11 | 232 | 6.4 | 14.5 | 0.00 | 0.05 | 0.00 | 88 | 1006.5 |
| 20260509044527 | 11 | 218 | 6.4 | 14.5 | 0.00 | 0.05 | 0.05 | 87 | 1006.5 |
| 20260509043033 | 11 | 212 | 4.8 | 8.0 | 0.00 | 0.05 | 0.05 | 87 | 1006.7 |
| 20260509041528 | 12 | 185 | 4.8 | 11.3 | 0.00 | 0.05 | 0.05 | 86 | 1006.7 |
| 20260509040030 | 12 | 219 | 4.8 | 9.7 | 0.00 | 0.05 | 0.05 | 85 | 1006.7 |
| 20260509034534 | 12 | 197 | 4.8 | 12.9 | 0.00 | 0.05 | 0.05 | 84 | 1006.8 |
| 20260509033026 | 12 | 227 | 8.0 | 11.3 | 0.00 | 0.05 | 0.05 | 83 | 1007.0 |
| 20260509031528 | 12 | 198 | 4.8 | 12.9 | 0.00 | 0.05 | 0.05 | 82 | 1007.0 |
| 20260509030030 | 12 | 207 | 4.8 | 11.3 | 0.00 | 0.05 | 0.05 | 82 | 1007.1 |
| 20260509024530 | 12 | 196 | 3.2 | 8.0 | 0.00 | 0.05 | 0.05 | 82 | 1007.0 |
| 20260509023032 | 12 | 190 | 1.6 | 8.0 | 0.00 | 0.05 | 0.05 | 81 | 1007.1 |
| 20260509021528 | 13 | 200 | 3.2 | 8.0 | 0.00 | 0.05 | 0.05 | 80 | 1007.0 |
| 20260509020034 | 13 | 196 | 3.2 | 8.0 | 0.00 | 0.05 | 0.05 | 80 | 1007.0 |
| 20260509014532 | 13 | 190 | 3.2 | 8.0 | 0.00 | 0.05 | 0.05 | 79 | 1006.9 |
| 20260509013028 | 13 | 171 | 3.2 | 14.5 | 0.00 | 0.05 | 0.05 | 77 | 1006.9 |
| 20260509011528 | 14 | 204 | 8.0 | 16.1 | 0.00 | 0.05 | 0.05 | 76 | 1006.9 |
| 20260509010028 | 14 | 195 | 8.0 | 19.3 | 0.00 | 0.05 | 0.05 | 75 | 1006.8 |
| 20260509004536 | 15 | 196 | 11.3 | 22.5 | 0.00 | 0.05 | 0.05 | 74 | 1006.7 |
| 20260509003027 | 15 | 207 | 16.1 | 29.0 | 0.00 | 0.05 | 0.05 | 72 | 1006.6 |
| 20260509001528 | 16 | 215 | 16.1 | 24.1 | 0.00 | 0.05 | 0.05 | 68 | 1006.3 |
| 20260509000028 | 16 | 211 | 9.7 | 17.7 | 0.00 | 0.05 | 0.05 | 67 | 1006.4 |
| 20260508234528 | 16 | 202 | 6.4 | 16.1 | 0.00 | 0.05 | 0.05 | 67 | 1006.4 |
| 20260508233030 | 16 | 197 | 9.7 | 22.5 | 0.00 | 0.05 | 0.05 | 66 | 1006.6 |
| 20260508231529 | 17 | 241 | 11.3 | 20.9 | 0.00 | 0.05 | 0.05 | 65 | 1006.6 |
| 20260508230026 | 17 | 247 | 8.0 | 16.1 | 0.00 | 0.05 | 0.05 | 67 | 1006.6 |
| 20260508224530 | 17 | 200 | 9.7 | 22.5 | 0.00 | 0.05 | 0.05 | 67 | 1006.7 |
| 20260508223039 | 17 | 223 | 12.9 | 27.4 | 0.00 | 0.05 | 0.05 | 67 | 1006.7 |
| 20260508221532 | 16 | 253 | 12.9 | 20.9 | 0.00 | 0.05 | 0.05 | 67 | 1006.8 |
| 20260508220032 | 17 | 236 | 11.3 | 25.7 | 0.00 | 0.05 | 0.05 | 68 | 1006.7 |
| 20260508214528 | 17 | 243 | 14.5 | 25.7 | 0.00 | 0.05 | 0.05 | 67 | 1006.8 |
| 20260508213026 | 17 | 228 | 14.5 | 25.7 | 0.00 | 0.05 | 0.05 | 67 | 1006.8 |
| 20260508211538 | 17 | 276 | 14.5 | 24.1 | 0.00 | 0.05 | 0.05 | 68 | 1006.8 |
| 20260508210030 | 16 | 271 | 12.9 | 24.1 | 0.00 | 0.05 | 0.05 | 68 | 1007.0 |
| 20260508204528 | 16 | 207 | 6.4 | 20.9 | 0.00 | 0.05 | 0.05 | 70 | 1007.0 |
| 20260508203028 | 16 | 263 | 6.4 | 14.5 | 0.00 | 0.05 | 0.05 | 67 | 1007.2 |
| 20260508201526 | 16 | 259 | 4.8 | 14.5 | 0.00 | 0.05 | 0.05 | 67 | 1007.5 |
| 20260508200028 | 16 | 255 | 4.8 | 11.3 | 0.00 | 0.05 | 0.05 | 65 | 1007.7 |
| 20260508194531 | 16 | 0 | 0.0 | 9.7 | 0.00 | 0.05 | 0.05 | 67 | 1007.8 |
| 20260508193034 | 16 | 113 | 0.0 | 8.0 | 0.00 | 0.05 | 0.05 | 66 | 1007.9 |
| 20260508191537 | 16 | 0 | 3.2 | 9.7 | 0.00 | 0.05 | 0.05 | 66 | 1008.1 |
| 20260508190032 | 16 | 0 | 1.6 | 11.3 | 0.00 | 0.05 | 0.05 | 67 | 1008.2 |
| 20260508184526 | 16 | 129 | 4.8 | 9.7 | 0.00 | 0.05 | 0.05 | 70 | 1008.6 |
| 20260508183033 | 15 | 112 | 4.8 | 12.9 | 0.00 | 0.05 | 0.05 | 71 | 1008.7 |
| 20260508181528 | 15 | 82 | 4.8 | 9.7 | 0.00 | 0.05 | 0.05 | 70 | 1008.8 |
| 20260508180028 | 15 | 102 | 0.0 | 6.4 | 0.00 | 0.05 | 0.05 | 69 | 1008.9 |
| 20260508174529 | 15 | 0 | 1.6 | 9.7 | 0.00 | 0.05 | 0.05 | 70 | 1009.3 |
| 20260508173027 | 15 | 169 | 3.2 | 12.9 | 0.00 | 0.05 | 0.05 | 70 | 1009.7 |
| 20260508171525 | 15 | 215 | 1.6 | 8.0 | 0.00 | 0.05 | 0.05 | 70 | 1009.9 |
| 20260508170026 | 15 | 0 | 1.6 | 12.9 | 0.00 | 0.05 | 0.05 | 71 | 1010.2 |
| 20260508164528 | 15 | 0 | 3.2 | 12.9 | 0.00 | 0.05 | 0.05 | 73 | 1010.3 |
| 20260508163035 | 15 | 240 | 4.8 | 16.1 | 0.00 | 0.05 | 0.05 | 74 | 1010.6 |
| 20260508161532 | 14 | 194 | 9.7 | 17.7 | 0.00 | 0.05 | 0.05 | 74 | 1010.6 |
| 20260508160028 | 14 | 193 | 8.0 | 19.3 | 0.00 | 0.05 | 0.05 | 77 | 1010.8 |
| 20260508154526 | 13 | 209 | 6.4 | 16.1 | 0.00 | 0.05 | 0.05 | 79 | 1010.8 |
| 20260508153034 | 13 | 163 | 6.4 | 14.5 | 0.00 | 0.05 | 0.05 | 83 | 1011.1 |
| 20260508151530 | 12 | 184 | 6.4 | 11.3 | 0.00 | 0.05 | 0.05 | 83 | 1011.0 |
| 20260508150030 | 12 | 173 | 8.0 | 14.5 | 0.00 | 0.05 | 0.05 | 83 | 1011.1 |
| 20260508144529 | 12 | 212 | 6.4 | 16.1 | 0.00 | 0.05 | 0.05 | 84 | 1011.2 |
| 20260508143027 | 12 | 156 | 4.8 | 12.9 | 0.00 | 0.05 | 0.05 | 85 | 1011.0 |
| 20260508141526 | 12 | 158 | 9.7 | 12.9 | 0.00 | 0.05 | 0.05 | 86 | 1011.1 |
| 20260508140029 | 11 | 181 | 8.0 | 12.9 | 0.00 | 0.05 | 0.05 | 90 | 1011.2 |
| 20260508134531 | 11 | 202 | 4.8 | 9.7 | 0.03 | 0.05 | 0.05 | 92 | 1011.3 |
| 20260508133028 | 10 | 194 | 4.8 | 8.0 | 0.03 | 0.05 | 0.05 | 93 | 1011.5 |
| 20260508131531 | 10 | 213 | 3.2 | 11.3 | 0.05 | 0.05 | 0.05 | 93 | 1011.4 |
| 20260508130026 | 9 | 192 | 3.2 | 14.5 | 0.05 | 0.05 | 0.05 | 92 | 1011.3 |
| 20260508124530 | 9 | 191 | 4.8 | 11.3 | 0.03 | 0.03 | 0.03 | 91 | 1011.5 |
| 20260508123028 | 9 | 200 | 4.8 | 11.3 | 0.03 | 0.03 | 0.03 | 91 | 1011.5 |
| 20260508121527 | 8 | 215 | 4.8 | 8.0 | 0.00 | 0.00 | 0.00 | 90 | 1011.7 |
| 20260508120036 | 8 | 196 | 1.6 | 8.0 | 0.00 | 0.00 | 0.00 | 90 | 1011.2 |
| 20260508114527 | 8 | 208 | 0.0 | 3.2 | 0.00 | 0.00 | 0.00 | 90 | 1011.3 |
| 20260508113030 | 8 | 0 | 0.0 | 4.8 | 0.00 | 0.00 | 0.00 | 89 | 1010.9 |
| 20260508111531 | 7 | 208 | 3.2 | 4.8 | 0.00 | 0.00 | 0.00 | 89 | 1010.8 |
| 20260508110029 | 7 | 208 | 3.2 | 4.8 | 0.00 | 0.00 | 0.00 | 88 | 1010.9 |
| 20260508104528 | 8 | 0 | 0.0 | 6.4 | 0.00 | 0.00 | 0.00 | 87 | 1010.9 |
| 20260508103026 | 7 | 0 | 1.6 | 4.8 | 0.00 | 0.00 | 0.00 | 87 | 1010.8 |